LEGION 2

Last updated on Fri Dec 19 2025 00:02:34 GMT+0000 (Coordinated Universal Time)

1 59626U 24081B 25352.63736410 .00004165 00000+0 21689-3 0 9994 2 59626 97.5216 67.3134 0005621 267.9218 92.1371 15.16548918 90171
UTC large
Height (km)
Speed (km/s)
/
Latitude / Longitude
Inclination (degrees)
Orbital Period (minutes)
Azimuth
Elevation
Range (km)
Doppler Factor

Next 0 passes for location: London (51.5072 / 0.1276)

Sorry there are no passes over London.